Ampeg V4.com

forum

You are not logged in.

Ampeg Heads

Topic Replies Views Last post
VT22 reverb by nastynotch347
1 1174 2018-03-24 09:47:37 by Tony
2 1067 2017-05-31 12:32:41 by rowell
1 994 2016-04-21 00:37:14 by GreaserMatt
15 6972 2016-04-20 23:52:07 by GreaserMatt
0 870 2015-10-02 10:08:35 by jay42
V2 Faceplate High Res PDF??? by Holy Schnikes
1 2136 2015-08-28 08:53:28 by Steelyman
1 1742 2015-08-07 13:52:24 by jay42
3 inputs on V4B ? by patmac
1 1131 2015-08-07 13:47:23 by jay42
Biasing a '70 SVT by msaudio
0 907 2015-06-11 13:35:32 by msaudio
Need amp tech for V4 by kestrou
0 1174 2015-02-03 06:59:56 by kestrou
1 1465 2014-10-06 02:52:12 by waltdogg
vt22 footswitch question by nocoastjames
1 1293 2014-10-01 07:32:59 by nocoastjames
1 2022 2014-09-09 19:29:27 by reb
Spam posting by ROBO
2 1533 2014-09-02 13:23:30 by waltdogg
Magnavox V4 by jarrym
0 1442 2014-06-14 14:10:05 by jarrym
1 1624 2014-06-12 20:46:32 by ROBO
0 1211 2014-06-12 00:48:40 by Jon K
3 2092 2014-06-03 00:46:47 by meexiko
New guy with a '70 VT-22 by nastynotch347
6 2634 2014-05-22 19:31:29 by hangman
V2 new PCB by Jon K
7 3690 2014-05-20 14:19:54 by Steelyman
1 1665 2014-05-11 21:38:35 by rowfour
0 1210 2014-04-22 12:27:07 by prb2
1 1398 2014-04-09 01:40:30 by hangman
2 1629 2014-04-07 21:00:50 by doug_olitsky
Ampeg V-4 Whistling? by waltdogg
5 2699 2014-03-15 10:34:45 by waltdogg
4 2451 2014-03-13 14:46:03 by waltdogg
Ampeg V4 Plate Voltage by ca_mccar
1 1765 2014-02-15 06:56:05 by teles
7 3096 2014-02-01 14:46:52 by jackobfranklin
1 1830 2014-01-30 23:45:29 by hangman
1 1643 2014-01-30 23:29:26 by hangman

Board footer

Powered by PunBB
© Copyright 2002–2005 Rickard Andersson